Location: Chakepay
(13.3931°S, 72.1925°W)
Time: 09:51:20
(UTC+00:00)

MOS 1 - Pass Details

Date: 15 November 2019
Orbit: 879 x 891 km, 99.2° (Epoch: 08 December)

Event Time Altitude Azimuth Distance (km) Brightness Sun altitude
Rises 01:05:17 0° 171° (S) 3,496 7.7 -29.7°
Reaches altitude 10° 01:07:42 10° 173° (S) 2,551 6.9 -30.2°
Enters shadow 01:12:59 68° 229° (SW) 947 4.5 -31.3°
